Regional Weather Roundup
Issued by NWS

Home | Current Version | Previous Version | Graphics & Text | Print | Product List | Glossary On
Versions: 1 2 3 4 5 6 7 8 9 10 11 12 13 14 15 16 17 18 19 20 21 22 23 24 25 26 27 28 29 30 31 32 33 34 35 36 37 38 39 40 41 42 43 44 45 46 47 48 49 50
000
ASUS43 KMPX 201210
RWRMN
WEATHER ROUNDUP FOR MINNESOTA
NATIONAL WEATHER SERVICE TWIN CITIES/CHANHASSEN MN
600 AM CST SAT DEC 20 2014


NOTE: "FAIR" INDICATES FEW OR NO CLOUDS BELOW 12,000 FEET WITH NO
SIGNIFICANT WEATHER AND/OR OBSTRUCTIONS TO VISIBILITY. N/A MEANS
CURRENT SKY AND/OR WEATHER CONDITIONS ARE NOT AVAILABLE.

MNZ060>063-068>070-201300-
   Twin Cities Metro

CITY           SKY/WX    TMP DP  RH WIND       PRES   REMARKS
TWIN CITIES    CLOUDY    29  25  85 S9        30.15S FOG     WCI  20
6HR MIN TEMP:  29; 6HR MAX TEMP:  29;

ST PAUL        CLOUDY    29  26  89 S9        30.17S WCI  20
CRYSTAL        CLOUDY    31  26  82 S7        30.13F WCI  24
BLAINE         CLOUDY    30  28  93 SE7       30.14S WCI  23
LAKEVILLE      CLOUDY    28  27  93 CALM      30.15R FOG
EDEN PRAIRIE   CLOUDY    30  26  85 S8        30.13S FOG     WCI  22
6HR MIN TEMP:  30; 6HR MAX TEMP:  30;

SOUTH ST PAUL  CLOUDY    31  26  84 S5        30.16R WCI  26
LAKE ELMO      CLOUDY    30  28  93 S7        30.16S WCI  23
$$
MNZ001>005-007-008-013>017-022>024-027-028-201300-
   Northwest Minnesota

CITY           SKY/WX    TMP DP  RH WIND       PRES   REMARKS
BEMIDJI        CLOUDY    29  28  98 S7        30.01F FOG     WCI  22
HALLOCK        CLOUDY    28  27  93 CALM      29.99S FOG
ROSEAU         CLOUDY    28  25  86 SE5       30.01S FOG     WCI  23
WARROAD        CLOUDY    27  23  86 SE5       30.02S FOG     WCI  21
THIEF RVR FALL CLOUDY    28  28 100 S8        30.01R WCI  20
CROOKSTON      MOCLDY    28  28 100 SW8         N/A  FOG     WCI  20
FOSSTON        CLOUDY    27  27 100 SW12      30.01S FOG     WCI  16
DETROIT LAKES  CLOUDY    30  30 100 S8        30.03R FOG     WCI  23
MOORHEAD       CLOUDY    30  30 100 S7        30.03S WCI  23
PARK RAPIDS    CLOUDY    30  28  92 S9        30.03S FOG     WCI  22
MAHNOMEN       CLOUDY    29  28  95 S10       30.01S FOG     WCI  19
$$
MNZ006-009>011-018-025>026-201300-
   North Central Minnesota

CITY           SKY/WX    TMP DP  RH WIND       PRES   REMARKS
BAUDETTE       CLOUDY    27  25  92 S3        30.02R FOG
FLAG ISLAND    CLOUDY    27  25  93 S7        30.02R FOG     WCI  19
INTL FALLS     LGT SNOW  26  24  92 S5        30.04S FOG     WCI  20
6HR MIN TEMP:  24; 6HR MAX TEMP:  26; 6HR PCP:  0.03;

WASKISH        CLOUDY    28  27  93 CALM      30.03S FOG
BIG FORK       MIX PCPN  27  25  93 SE5       30.05S WCI  21
LONGVILLE      CLOUDY    28  28 100 S7        30.05S FOG     WCI  21
GRAND RAPIDS   CLOUDY    27  27 100 S9        30.06S WCI  17
CRANE LAKE     LGT SNOW  25  25 100 CALM      30.10S
ORR            LGT SNOW  25  21  86 SE6       30.05S WCI  18
COOK           LGT SNOW  25  25 100 SE6       30.08S WCI  18
WALKER         CLOUDY    29  28  96 S7        30.03S FOG     WCI  22
$$
MNZ012-019>021-037-201300-
   Northeast Minnesota

CITY           SKY/WX    TMP DP  RH WIND       PRES   REMARKS
DULUTH         LGT SNOW  26  23  88 S9        30.11S FOG     WCI  17
6HR MIN TEMP:  25; 6HR MAX TEMP:  26; 6HR PCP: TRACE;

ELY            LGT SNOW  25  23  93 S5        30.10R WCI  19
HIBBING        LGT SNOW  26  23  88 SE6       30.08S FOG     WCI  19
EVELETH        LGT SNOW  27  25  93 S7        30.10S WCI  19
DULUTH HARBOR  CLOUDY    28  25  86 CALM      30.17S
TWO HARBORS    CLOUDY    28  25  86 S5        30.13S WCI  23
SILVER BAY     LGT SNOW  28  27  93 S5        30.13S WCI  23
GRAND MARAIS     N/A     32  27  81 S10       30.18S WCI  24
G MARAIS ARPRT CLOUDY    25  21  86 S3        30.12S FOG
$$
MNZ029>031-032-039>041-046>048-054>057-064-201300-
   West Central Minnesota

CITY           SKY/WX    TMP DP  RH WIND       PRES   REMARKS
FERGUS FALLS   CLOUDY    28  28 100 S9        30.06F FOG     WCI  20
WHEATON        CLOUDY    28  27  93 S6        30.06S WCI  22
MORRIS         CLOUDY    30  28  93 S8        30.04F FOG     WCI  23
ALEXANDRIA     CLOUDY    29  27  92 S10       30.06S FOG     WCI  20
ELBOW LAKE     CLOUDY    28  28  96 S12       30.04S WCI  18
WADENA         CLOUDY    28  28 100 S7        30.04S FOG     WCI  21
GLENWOOD       CLOUDY    28  28 100 S14       30.07S FOG     WCI  17
APPLETON       CLOUDY    32  28  86 S3        30.06F
BENSON         CLOUDY    30  28  93 SW7       30.07F FOG     WCI  23
ORTONVILLE     CLOUDY    30  27  86 S5        30.04F WCI  25
MADISON        PTCLDY    34  32  93 S3        30.06F
WILLMAR        CLOUDY    32  28  86 S6        30.11R FOG     WCI  26
$$
MNZ033>034-036-042>043-049>051-058-059-201300-
   Central Minnesota

CITY           SKY/WX    TMP DP  RH WIND       PRES   REMARKS
ST CLOUD       CLOUDY    32  29  88 S9        30.11R FOG     WCI  24
6HR MIN TEMP:  32; 6HR MAX TEMP:  32;

SAUK CENTRE    CLOUDY    30  28  94 S13       30.08R FOG     WCI  20
PAYNESVILLE    CLOUDY    28  27  96 SE8       30.10R FOG     WCI  20
AITKIN         CLOUDY    30  27  86 SE7       30.07S HAZE    WCI  23
PINE RIVER     CLOUDY    28  28 100 S8        30.09R FOG     WCI  20
BRAINERD       CLOUDY    29  29 100 S8        30.08R FOG     WCI  21
STAPLES        CLOUDY    28  28 100 S9        30.06R FOG     WCI  20
LONG PRAIRIE   CLOUDY    30  28  93 S14G20    30.07R FOG     WCI  20
LITTLE FALLS   CLOUDY    32  28  86 S8        30.09S FOG     WCI  25
LITCHFIELD     CLOUDY    32  32 100 S3        30.11R
BUFFALO        CLOUDY    30  28  92 SE7       30.14R FOG     WCI  23
MAPLE LAKE     CLOUDY    31  31  99 S7        30.13R FOG     WCI  24
$$
MNZ037-044-045-052-053-201300-
   East Central Minnesota

CITY           SKY/WX    TMP DP  RH WIND       PRES   REMARKS
PRINCETON      CLOUDY    30  28  93 SE7       30.13R FOG     WCI  23
MORA           CLOUDY    28  25  86 S7        30.14S WCI  21
CAMBRIDGE      CLOUDY    30  23  74 SE5       30.12S HAZE    WCI  25
RUSH CITY      CLOUDY    28  25  88 SE5       30.14S WCI  23
MOOSE LAKE     CLOUDY    28  27  93 CALM      30.11S FOG
HINCKLEY       CLOUDY    30  27  86 CALM      30.14R
CLOQUET        LGT SNOW  27  25  93 SE3       30.11S
MCGREGOR       CLOUDY    28  28 100 S8        30.09S WCI  20
$$
MNZ071>073-080-081-089-090-097-098-201300-
   Southwest Minnesota

CITY           SKY/WX    TMP DP  RH WIND       PRES   REMARKS
MONTEVIDEO     CLOUDY    30  30 100 SW8       30.08F FOG     WCI  23
GRANITE FALLS  CLOUDY    32  29  90 S8        30.10S WCI  24
CANBY          CLOUDY    31  29  92 SW8       30.07S FOG     WCI  24
MARSHALL       CLOUDY    30  27  86 SW10      30.08R WCI  21
REDWOOD FALLS  CLOUDY    32  28  85 S7        30.10R WCI  26
OLIVIA         CLOUDY    32  30  93 S7        30.10R WCI  26
PIPESTONE      CLOUDY    30  28  93 S3        30.03F FOG
WINDOM         CLOUDY    28  28 100 S7        30.09S FOG     WCI  21
WORTHINGTON    CLOUDY    28  27  93 S9        30.09R WCI  20
JACKSON        CLOUDY    30  28  93 S7        30.10S WCI  23
TRACY          CLOUDY    32  29  90 SW10      30.09R WCI  24
SLAYTON        CLOUDY    30  29  99 S5        30.07R FOG     WCI  25
$$
MNZ065>067-074>077-082>085-091>093-201300-
   South Central Minnesota

CITY           SKY/WX    TMP DP  RH WIND       PRES   REMARKS
MANKATO        CLOUDY    30  27  86 S7        30.13R VSB 1   WCI  23
NEW ULM        CLOUDY    30  28  93 S13       30.12S WCI  20
ST JAMES       CLOUDY    30  28  93 S9        30.13S WCI  22
FAIRMONT       CLOUDY    28  25  86 S10       30.12R WCI  19
GLENCOE        CLOUDY    32  31  98 SE6       30.12S FOG     WCI  26
FARIBAULT      CLOUDY    30  27  86 SE6       30.14F FOG     WCI  24
OWATONNA       CLOUDY    28  27  93 SE8       30.14F FOG     WCI  20
WASECA         CLOUDY    30  28  93 SE7       30.15R FOG     WCI  23
ALBERT LEA     FOG       28  28 100 S6        30.14S VSB 1/4 WCI  22
$$
MNZ078>079-086>088-094>096-201300-
   Southeast Minnesota

CITY           SKY/WX    TMP DP  RH WIND       PRES   REMARKS
ROCHESTER      CLOUDY    27  25  92 S8        30.16S FOG     WCI  19
6HR MIN TEMP:  27; 6HR MAX TEMP:  28;

RED WING       CLOUDY    30  25  80 SE6       30.17F WCI  24
STANTON        CLOUDY    31  27  85 S8        30.14F FOG     WCI  23
DODGE CENTER   CLOUDY    28  27  93 S8        30.14F FOG     WCI  20
WINONA         CLOUDY    30  25  80 SE3       30.22S
AUSTIN         CLOUDY    27  27 100 S5        30.15S FOG     WCI  21
PRESTON        CLOUDY    26  25  94 S5        30.17S FOG     WCI  21
$$
ABBREVIATIONS USED IN REMARKS
   TC - TEMPERATURES IN CELSIUS
  WCI - WIND CHILL INDEX
   HX - HEAT INDEX
  VSB - VISIBILITY
$$


USA.gov is the U.S. government's official web portal to all federal, state and local government web resources and services.